カタログに戻る

STARLINK-37239

運用中通信VLEO
NORAD 100018·PAYLOAD·🇺🇸 United States

打ち上げ Jul 14, 2026 から Vandenberg Space Force Base

Loading…

次のパス (今後24時間)

TLE

最新Source: Space-Track

元期: Sep 14, 2026, 20:17 UTC

1 A0018U 26160T   26257.84526248  .00313946  00000-0  18095-2 0  9996
2 A0018  70.0020 210.8318 0003066 270.9120  89.1728 15.77643020 11102

AllMySatでSTARLINK-37239をリアルタイム追跡

Download on the App Store